Reading, PA

7:37 PM EST on December 12, 2019 (GMT -0500)
Reading Regional-Spaatz

Weather History for KRDG - August, 2019

Change the Weather History Date:

Tuesday, August 6, 2019

  Actual Average Record
Temperature  
Mean Temperature 79 °F 74 °F  
Max Temperature 90 °F 84 °F 104 °F (1918)
Min Temperature 68 °F 64 °F 51 °F (1912)
Degree Days  
Heating Degree Days 0 0  
Month to date heating degree days 0 0  
Since 1 June heating degree days 16 25  
Since 1 July heating degree days 0 1  
Cooling Degree Days 14 9  
Month to date cooling degree days 78 54  
Year to date cooling degree days 816 606  
Since 1 June cooling degree days 711 546  
Growing Degree Days 28 (Base 50)    
Moisture  
Dew Point 70 °F    
Average Humidity 78    
Maximum Humidity 100    
Minimum Humidity 55    
Precipitation  
Precipitation 0.00 in 0.11 in 1.59 in (1940)
Month to date precipitation 0.21 0.71  
Year to date precipitation 38.50 26.03  
Sea Level Pressure  
Sea Level Pressure 29.87 in    
Wind  
Wind Speed 4 mph (SSE)    
Max Wind Speed 14 mph    
Max Gust Speed 18 mph    
Visibility 7 miles    
Events      
T = Trace of Precipitation, MM = Missing Value Source: NWS Daily Summary

Daily Weather History Graph

Daily Weather History Graph

Search for Another Location

Airport or City:

Astronomy

Aug. 06, 2019 Rise Set
Actual Time 6:05 AM EDT 8:13 PM EDT
Civil Twilight 5:35 AM EDT 8:42 PM EDT
Nautical Twilight 4:58 AM EDT 9:19 PM EDT
Astronomical Twilight 4:18 AM EDT 9:59 PM EDT
Moon 12:29 PM EDT (8/6) 11:55 PM EDT (8/6)
Length of Visible Light 15h 07m
Length of Day
14h 07m
Waxing Crescent, 38% of the Moon is Illuminated
Aug 6
Waxing Crescent
Aug 7
First Quarter
Aug 15
Full
Aug 23
Last Quarter
Aug 30
New

Hourly Weather History & Observations

Time (EDT) Temp. Heat Index Dew Point Humidity Pressure Visibility Wind Dir Wind Speed Gust Speed Precip Events Conditions
12:54 AM 72.0 °F - 69.1 °F 91% 29.93 in 10.0 mi Calm Calm - N/A   Clear
1:54 AM 70.0 °F - 69.1 °F 97% 29.91 in 10.0 mi Calm Calm - N/A   Clear
2:54 AM 70.0 °F - 69.1 °F 97% 29.90 in 10.0 mi Calm Calm - N/A   Clear
3:54 AM 69.1 °F - 68.0 °F 96% 29.91 in 10.0 mi North 4.6 mph - N/A   Clear
4:54 AM 69.1 °F - 68.0 °F 96% 29.91 in 10.0 mi Calm Calm - N/A   Partly Cloudy
5:54 AM 69.1 °F - 68.0 °F 96% 29.90 in 5.0 mi Calm Calm - N/A   Clear
6:42 AM 69.1 °F - 68.0 °F 96% 29.89 in 2.5 mi North 3.5 mph - N/A   Haze
6:54 AM 69.1 °F - 68.0 °F 96% 29.90 in 2.0 mi North 3.5 mph - N/A   Haze
7:01 AM 69.1 °F - 68.0 °F 96% 29.89 in 2.0 mi Calm Calm - N/A   Haze
7:54 AM 71.1 °F - 69.1 °F 93% 29.89 in 2.5 mi Calm Calm - N/A   Scattered Clouds
8:49 AM 73.4 °F - 71.6 °F 94% 29.89 in 2.5 mi Calm Calm - N/A   Mostly Cloudy
8:54 AM 73.9 °F - 71.1 °F 91% 29.90 in 2.5 mi Calm Calm - N/A   Mostly Cloudy
9:54 AM 75.9 °F - 72.0 °F 87% 29.90 in 2.5 mi SSE 3.5 mph - N/A   Mostly Cloudy
10:01 AM 75.9 °F - 72.0 °F 87% 29.89 in 2.5 mi Calm Calm - N/A   Partly Cloudy
10:20 AM 78.1 °F - 73.0 °F 84% 29.89 in 4.0 mi Calm Calm - N/A   Partly Cloudy
10:54 AM 80.1 °F 84.2 °F 73.0 °F 79% 29.90 in 4.0 mi Variable 3.5 mph - N/A   Mostly Cloudy
11:54 AM 81.0 °F 85.8 °F 73.0 °F 77% 29.89 in 5.0 mi Variable 4.6 mph - N/A   Haze
12:54 PM 82.9 °F 88.8 °F 73.0 °F 72% 29.87 in 7.0 mi Variable 5.8 mph - N/A   Scattered Clouds
1:54 PM 84.0 °F 89.6 °F 72.0 °F 67% 29.84 in 9.0 mi SE 5.8 mph - N/A   Mostly Cloudy
2:54 PM 88.0 °F 92.9 °F 70.0 °F 55% 29.81 in 10.0 mi SSW 6.9 mph - N/A   Mostly Cloudy
3:54 PM 88.0 °F 92.1 °F 69.1 °F 53% 29.80 in 10.0 mi South 8.1 mph - N/A   Mostly Cloudy
4:54 PM 84.9 °F 88.8 °F 69.1 °F 59% 29.80 in 10.0 mi South 11.5 mph - N/A   Mostly Cloudy
5:54 PM 84.9 °F 89.4 °F 70.0 °F 61% 29.80 in 10.0 mi South 10.4 mph - N/A   Clear
6:54 PM 82.9 °F 87.0 °F 70.0 °F 65% 29.81 in 10.0 mi Calm Calm - N/A   Partly Cloudy
7:54 PM 82.0 °F 84.5 °F 66.9 °F 60% 29.80 in 10.0 mi South 6.9 mph - N/A   Clear
8:54 PM 80.1 °F 83.6 °F 71.1 °F 74% 29.81 in 10.0 mi SSE 8.1 mph - N/A   Clear
9:54 PM 78.1 °F - 71.1 °F 79% 29.84 in 10.0 mi South 3.5 mph - N/A   Clear
10:54 PM 77.0 °F - 71.1 °F 82% 29.82 in 10.0 mi SE 8.1 mph - N/A   Clear
11:54 PM 75.0 °F - 71.1 °F 87% 29.82 in 10.0 mi South 5.8 mph - N/A   Clear